Regional Weather Roundup
Issued by NWS

Home | Current Version | Previous Version | Graphics & Text | Print | Product List | Glossary Off
Versions: 1 2 3 4 5 6 7 8 9 10 11 12 13 14 15 16 17 18 19 20 21 22 23 24 25 26 27 28 29 30 31 32 33 34 35 36 37 38 39 40 41 42 43 44 45 46 47 48 49 50

000
ASUS43 KMKX 301759
RWRWI

WISCONSIN REGIONAL WEATHER ROUNDUP
NATIONAL WEATHER SERVICE MILWAUKEE/SULLIVAN WI
1200 PM CST FRI JAN 30 2015

NOTE: "FAIR" INDICATES FEW OR NO CLOUDS BELOW 12,000 FEET WITH NO
SIGNIFICANT WEATHER AND/OR OBSTRUCTIONS TO VISIBILITY.

WIZ001-002-006>008-014>016-023>028-301900-
NORTHWEST WISCONSIN

CITY           SKY/WX    TMP DP  RH WIND       PRES   REMARKS
SUPERIOR ARPT  MOSUNNY   12   2  64 SW8       30.47F WCI   1
ASHLAND        CLOUDY    14   3  61 SW8       30.45F WCI   3
6HR MIN TEMP:   4; 6HR MAX TEMP:  14;

HAYWARD        CLOUDY    11   2  67 SW8       30.43F WCI  -1
6HR MIN TEMP:  -4; 6HR MAX TEMP:  11;

SIREN          PTSUNNY   11   1  64 SW3       30.48F
CUMBERLAND     MOSUNNY    9   1  72 S3        30.45F
RICE LAKE      MOSUNNY   10   1  68 SW3       30.49F
CHETEK         PTSUNNY   11   1  65 SW3       30.48F
LADYSMITH      PTSUNNY   13   5  70 S5        30.47F WCI   5
EAU CLAIRE     NOT AVBL
MENOMONIE      CLOUDY    14   4  65 SE5       30.50F WCI   6
NEW RICHMOND   PTSUNNY   14   5  67 SW6       30.48F WCI   5
OSCEOLA        PTSUNNY   15   6  68 S7        30.52F WCI   5
$$

WIZ003>005-009-010-017-018-301900-
NORTH CENTRAL WISCONSIN

CITY           SKY/WX    TMP DP  RH WIND       PRES   REMARKS
MANITOWISH WTR MOSUNNY   12   2  64 SW3       30.38F
ARBOR VITAE    PTSUNNY   14   4  65 CALM      30.39F
WOODRUFF       PTSUNNY   14   4  65 CALM      30.39F
RHINELANDER    CLOUDY    14   4  64 W7        30.39F WCI   4
6HR MIN TEMP:   9; 6HR MAX TEMP:  14;

EAGLE RIVER    PTSUNNY   12   1  62 CALM      30.39F
LAND O LAKES   CLOUDY    13   4  66 SW5       30.39F WCI   6
PHILLIPS       PTSUNNY   13   3  65 SW6       30.41F WCI   3
TOMAHAWK       CLOUDY    13   3  62 CALM      30.43F
MEDFORD        MOSUNNY   12   3  68 SW6       30.44F WCI   3
MERRILL        CLOUDY    15   4  63 SW7       30.45F WCI   5
$$

WIZ029-030-035-036-043>047-301900-
CENTRAL WISCONSIN

CITY           SKY/WX    TMP DP  RH WIND       PRES   REMARKS
WAUSAU         PTSUNNY   14   3  61 SW7       30.44F WCI   4
6HR MIN TEMP:   9; 6HR MAX TEMP:  15;

MOSINEE        SUNNY     16   7  67 SW5       30.47F WCI   9
MARSHFIELD     PTSUNNY   14   5  67 SW5       30.46F WCI   6
6HR MIN TEMP:   6; 6HR MAX TEMP:  14;

STEVENS POINT  MOSUNNY   15   3  59 W6        30.48F WCI   6
WAUPACA        PTSUNNY   22   6  49 CALM      30.51S
WAUTOMA        NOT AVBL
WISC RAPIDS    MOSUNNY   17   4  56 CALM      30.49F
6HR MIN TEMP:   8; 6HR MAX TEMP:  18;

CAMP DOUGLAS   NOT AVBL
$$

WIZ011>013-019>022-031-037>040-048>050-301900-
NORTHEAST WISCONSIN

CITY           SKY/WX    TMP DP  RH WIND       PRES   REMARKS
ANTIGO         CLOUDY    12   4  70 SW5       30.42F WCI   4
SHAWANO        PTSUNNY   19   5  54 W5        30.50F WCI  12
OCONTO         MOSUNNY   17   5  58 MISG      30.51S
STURGEON BAY   SUNNY     14   1  57 NW3       30.51F
6HR MIN TEMP:  10; 6HR MAX TEMP:  14;

GREEN BAY      PTSUNNY   19   7  59 CALM      30.50F
6HR MIN TEMP:  13; 6HR MAX TEMP:  20;

MANITOWOC      NOT AVBL
APPLETON       PTSUNNY   18   3  53 VRB5      30.50F WCI  11
CLINTONVILLE   CLOUDY    19   5  53 CALM      30.50F
OSHKOSH        PTSUNNY   19   7  59 W8        30.50F WCI   9
6HR MIN TEMP:  12; 6HR MAX TEMP:  20;

$$

WIZ032>034-041-042-053>061-301900-
SOUTHWEST WISCONSIN

CITY           SKY/WX    TMP DP  RH WIND       PRES   REMARKS
LA CROSSE      CLOUDY    19   5  54 CALM      30.54F
6HR MIN TEMP:  10; 6HR MAX TEMP:  20;

SPARTA         PTSUNNY   17   6  61 CALM      30.53F
VIROQUA        MOSUNNY   17   8  66 CALM      30.48F
BOSCOBEL       PTSUNNY   22   8  55 SW6       30.53F WCI  14
6HR MIN TEMP:  12; 6HR MAX TEMP:  22;

PRAIRIE DU CHI PTSUNNY   20   7  57 CALM      30.54F
PLATTEVILLE    SUNNY     20  11  68 CALM      30.50F
$$

WIZ056-057-062-063-064-067-068-301900-
SOUTH CENTRAL WISCONSIN

CITY           SKY/WX    TMP DP  RH WIND       PRES   REMARKS
REEDSBURG      PTSUNNY   18   8  64 W3        30.51F
BARABOO/DELLS  FAIR      19   8  62 CALM      30.51F
LONE ROCK      NOT AVBL
MINERAL POINT  MOSUNNY   23  10  58 CALM      30.48F
MADISON        PTSUNNY   21   9  59 CALM      30.50F
6HR MIN TEMP:  11; 6HR MAX TEMP:  21;

MIDDLETON      MOSUNNY   23   9  55 CALM      30.51F
WATERTOWN      MOSUNNY   21   9  57 CALM      30.51S
MONROE         SUNNY     23  12  63 CALM      30.50F
JANESVILLE     MOSUNNY   25   9  50 VRB5      30.51F WCI  19
$$

WIZ051-052-058>065-066-070>072-301900-
SOUTHEAST WISCONSIN

CITY           SKY/WX    TMP DP  RH WIND       PRES   REMARKS
MILWAUKEE      MOSUNNY   25   7  46 CALM      30.50F
6HR MIN TEMP:  18; 6HR MAX TEMP:  25;

WAUKESHA       SUNNY     19   7  58 CALM      30.55R
MILWAUKEE/TIMM SUNNY     23   5  46 MISG      30.51F
RACINE         PTSUNNY   25   9  50 VRB6      30.52F WCI  18
6HR MIN TEMP:  17; 6HR MAX TEMP:  26;

BURLINGTON     SUNNY     21   6  53 CALM      30.51F
KENOSHA        SUNNY     25   8  48 W8        30.51F WCI  16
6HR MIN TEMP:  17; 6HR MAX TEMP:  25;

FOND DU LAC    PTSUNNY   20   6  55 CALM      30.50F
6HR MIN TEMP:  11; 6HR MAX TEMP:  21; 6HR PCP: TRACE;

SHEBOYGAN      MOSUNNY   21   9  59 CALM      30.49F
6HR MIN TEMP:  10; 6HR MAX TEMP:  21;

WEST BEND      MOSUNNY   23   5  46 CALM      30.48F
JUNEAU         PTSUNNY   20   8  60 W3        30.51S
$$

LSZ147-162-301900-
LAKE SUPERIOR

STATION/POSITION TIME  TEMP    WIND        PRES    WAVE
                       AIR SEA DIR/SP/G            HT/PER
                 (UTC) (F)     (DEG/KT/KT) (MB)    (FT/S)
DEVILS ISLAND    1700   14     240/  7/  9 1033.3F
PORT WING        1740   12     190/  5/  9 1031.5F
SAXON HARBOR     1700   14      CALM  /  7 1032.2F
$$

LMZ867-665-643>646-301900-
LAKE MICHIGAN

STATION/POSITION TIME  TEMP    WIND        PRES    WAVE
                       AIR SEA DIR/SP/G            HT/PER
                 (UTC) (F)     (DEG/KT/KT) (MB)    (FT/S)
NORTHPORT PIER   1712   15     320/ 10/ 16 1032.8F
SISTER BAY       1643   20     320/  9/ 10   N/A
KEWAUNEE LAKESHO 1700   16      20/  3/  8 1032.8R
SHEBOYGAN LAKESH 1700   18      10/  5/  6 1035.1F
PORT WASHINGTON  1740   23      70/  4/  7 1033.9F
MILWAUKEE LAKESH 1700   21      50/  6/  7   N/A
KENOSHA   LAKESH 1700   22      20/  4/  8 1033.5S
$$

TC  - TEMPERATURE IN CELSIUS
VSB - VISIBILITY IN STATUTE MILES
WCI - WIND CHILL INDEX
HX  - HEAT INDEX




USA.gov is the U.S. government's official web portal to all federal, state and local government web resources and services.